Location: Buch
(49.7331°N, 12.1098°E)
Time: 02:12:50
(UTC+00:00)

ALOS 2 - Pass Details

Date: 12 May 2021
Orbit: 630 x 632 km, 97.9° (Epoch: 23 June)

Event Time Altitude Azimuth Distance (km) Brightness Sun altitude
Exits shadow 23:02:19 45° 239° (WSW) 867 3.0 -21.9°
Maximum altitude 23:02:49 47° 261° (W) 841 3.1 -21.9°
Drops below altitude 10° 23:07:05 10° 336° (NNW) 2,027 6.1 -21.9°
Sets 23:09:22 0° 342° (NNW) 2,940 7.3 -21.9°
